Regional Weather Roundup
Issued by NWS

Home | Current Version | Previous Version | Text Only | Print | Product List | Glossary Off
Versions: 1 2 3 4 5 6 7 8 9 10 11 12 13 14 15 16 17 18 19 20 21 22 23 24 25 26 27 28 29 30 31 32 33 34 35 36 37 38 39 40 41 42 43 44 45 46 47 48 49 50

000
ASUS44 KMEG 302010
RWRTN
TENNESSEE HOURLY STATE WEATHER ROUNDUP
NATIONAL WEATHER SERVICE MEMPHIS TN
300 PM CDT SAT JUL 30 2016

TNZ002-004-019-021-049-052-054-088>092-302100-
WEST TENNESSEE

CITY           SKY/WX    TMP DP  RH WIND       PRES   REMARKS
MEMPHIS INTL   MOSUNNY   88  73  61 W8        29.98F HX  95
NWS MEMPHIS      N/A     89 N/A N/A MISG        N/A
JACKSON        PTSUNNY   85  73  67 SW7       29.99S HX  91
DYERSBURG      PTSUNNY  N/A N/A N/A MISG        N/A
UNION CITY     MOSUNNY   84  73  70 W6        29.96F HX  91
PARIS          PTSUNNY   82  72  69 W5        29.99S
LEXINGTON      PTSUNNY   88  72  58 W6        29.99S HX  94
$$

TNZ008-025-027-028-033-062-065-066-302100-
NORTH MIDDLE TENNESSEE

CITY           SKY/WX    TMP DP  RH WIND       PRES   REMARKS
NASHVILLE      PTSUNNY   86  69  56 S6        29.99F HX  90
CLARKSVILLE    MOSUNNY   85  70  60 S5        29.97F
SMYRNA         PTSUNNY   87  72  61 SW8       30.00S HX  93
COOKEVILLE     SUNNY     88  73  62 NW7       30.01S HX  96
CROSSVILLE     MOSUNNY   82  67  60 SW5       30.06F
$$

TNZ061-075-076-078-094-096-097-302100-
SOUTH MIDDLE TENNESSEE

CITY           SKY/WX    TMP DP  RH WIND       PRES   REMARKS
FAYETTEVILLE   SUNNY     82  73  74 W5        30.02F
TULLAHOMA      SUNNY     84  70  61 W7        30.03F
WINCHESTER     SUNNY     84  70  61 W6        30.02F
MCMINNVILLE    SUNNY     86  73  66 W9        30.02F HX  93
COLUMBIA       SUNNY     88  72  58 S6        29.99F HX  94
SHELBYVILLE    SUNNY     84  73  70 W6        30.01F HX  91
$$

TNZ017-018-042-046-047-302100-
NORTHEAST TENNESSEE

CITY           SKY/WX    TMP DP  RH WIND       PRES   REMARKS
TRI CITIES     PTSUNNY   85  67  54 VRB3      30.03F
ELIZABETHTON   MOSUNNY   84  68  58 NW5       30.02F
$$

TNZ012-013-036-069-073-074-302100-
CENTRAL EAST TENNESSEE

CITY           SKY/WX    TMP DP  RH WIND       PRES   REMARKS
KNOXVILLE      MOSUNNY   89  70  53 SW10      29.97F HX  94
OAK RIDGE      MOSUNNY   91  68  46 VRB3      30.00F HX  95
GATLINBURG       N/A     93  66  40 VRB7      29.98F HX  96
MORRISTOWN     SUNNY     86  70  58 NW6G12    30.00F HX  90
$$

TNZ083-085-099-302100-
SOUTHEAST TENNESSEE

CITY           SKY/WX    TMP DP  RH WIND       PRES   REMARKS
CHATTANOOGA    PTSUNNY   92  65  40 VRB6      29.98F HX  94
$$

SKY/WX REPORTED AS FAIR MEANS FEW OR NO CLOUDS BELOW
12 THOUSAND FEET.




USA.gov is the U.S. government's official web portal to all federal, state and local government web resources and services.